Terminal Aerodrome Forecast
Issued by NWS

Current Version | Previous Version | Graphics & Text | Print | Product List | Glossary On
Versions: 1 2 3 4 5 6 7 8 9 10 11 12 13 14 15 16 17 18 19 20 21 22 23 24 25 26 27 28
000
FTUS41 KRNK 230531
TAFLWB
TAF
KLWB 230531Z 2306/2406 00000KT P6SM SCT250
     FM231500 11005KT P6SM SCT040 OVC100
     FM232000 14007KT P6SM -RA OVC025
     FM240000 14010KT 4SM -RA BR OVC020
      TEMPO 2400/2404 2SM RA BR OVC008=

USA.gov is the U.S. government's official web portal to all federal, state and local government web resources and services.